Time,TemperatureF,DewpointF,PressureIn,WindDirection,WindDirectionDegrees,WindSpeedMPH,WindSpeedGustMPH,Humidity,HourlyPrecipIn,Conditions,Clouds,dailyrainin,SoftwareType,DateUTC
2013-06-18 00:01:00,35.4,18.6,28.53,North,6,0.0,0.0,50,0.00,CLR,OVC,0.00,WeatherDisplay:10.37,2013-06-18 04:01:00,
2013-06-18 00:06:00,35.6,20.1,28.53,North,6,0.0,0.0,53,0.00,CLR,OVC,0.00,WeatherDisplay:10.37,2013-06-18 04:06:00,
2013-06-18 00:11:00,35.6,19.7,28.53,North,6,0.0,0.0,52,0.00,CLR,OVC,0.00,WeatherDisplay:10.37,2013-06-18 04:11:00,
2013-06-18 00:16:00,35.2,18.9,28.53,North,6,0.0,0.0,51,0.00,CLR,OVC,0.00,WeatherDisplay:10.37,2013-06-18 04:16:00,
2013-06-18 00:21:00,35.2,19.4,28.53,North,6,0.0,0.0,52,0.00,CLR,OVC,0.00,WeatherDisplay:10.37,2013-06-18 04:21:00,
2013-06-18 00:26:00,35.6,20.6,28.53,North,6,0.0,0.0,54,0.00,CLR,OVC,0.00,WeatherDisplay:10.37,2013-06-18 04:26:00,
2013-06-18 00:31:00,35.6,20.6,28.53,North,6,0.0,0.0,54,0.00,CLR,OVC,0.00,WeatherDisplay:10.37,2013-06-18 04:31:00,
2013-06-18 00:36:00,35.6,21.4,28.53,North,6,0.0,0.0,56,0.00,CLR,OVC,0.00,WeatherDisplay:10.37,2013-06-18 04:36:00,
2013-06-18 00:41:00,35.2,20.7,28.53,North,6,0.0,0.0,55,0.00,CLR,OVC,0.00,WeatherDisplay:10.37,2013-06-18 04:41:00,
2013-06-18 00:46:00,34.9,22.4,28.53,North,6,0.0,0.0,60,0.00,CLR,OVC,0.00,WeatherDisplay:10.37,2013-06-18 04:46:00,
2013-06-18 00:51:00,34.7,22.6,28.53,North,6,0.0,0.0,61,0.00,CLR,OVC,0.00,WeatherDisplay:10.37,2013-06-18 04:51:00,
2013-06-18 00:56:00,34.3,21.5,28.53,North,6,0.0,0.0,59,0.00,CLR,OVC,0.00,WeatherDisplay:10.37,2013-06-18 04:56:00,
2013-06-18 01:01:00,34.0,20.7,28.53,North,6,0.0,0.0,58,0.00,CLR,OVC,0.00,WeatherDisplay:10.37,2013-06-18 05:01:00,
2013-06-18 01:06:00,34.0,20.7,28.56,North,6,0.0,0.0,58,0.00,CLR,OVC,0.00,WeatherDisplay:10.37,2013-06-18 05:06:00,
2013-06-18 01:11:00,34.0,20.7,28.56,North,6,0.0,0.0,58,0.00,CLR,OVC,0.00,WeatherDisplay:10.37,2013-06-18 05:11:00,
2013-06-18 01:16:00,34.7,22.6,28.56,North,6,0.0,0.0,61,0.00,CLR,OVC,0.00,WeatherDisplay:10.37,2013-06-18 05:16:00,
2013-06-18 01:21:00,34.9,23.2,28.53,North,6,0.0,0.0,62,0.00,CLR,OVC,0.00,WeatherDisplay:10.37,2013-06-18 05:21:00,
2013-06-18 01:26:00,34.7,22.2,28.53,North,6,0.0,0.0,60,0.00,CLR,OVC,0.00,WeatherDisplay:10.37,2013-06-18 05:26:00,
2013-06-18 01:31:00,34.2,21.7,28.53,North,6,0.0,0.0,60,0.00,CLR,OVC,0.00,WeatherDisplay:10.37,2013-06-18 05:31:00,
2013-06-18 01:36:00,34.0,21.5,28.56,North,6,0.0,0.0,60,0.00,CLR,OVC,0.00,WeatherDisplay:10.37,2013-06-18 05:36:00,
2013-06-18 01:41:00,34.0,21.5,28.56,North,6,0.0,0.0,60,0.00,CLR,OVC,0.00,WeatherDisplay:10.37,2013-06-18 05:41:00,
2013-06-18 01:46:00,34.3,23.0,28.56,North,6,0.0,0.0,63,0.00,CLR,OVC,0.00,WeatherDisplay:10.37,2013-06-18 05:46:00,
2013-06-18 01:51:00,34.3,23.0,28.56,North,6,0.0,0.0,63,0.00,CLR,OVC,0.00,WeatherDisplay:10.37,2013-06-18 05:51:00,
2013-06-18 01:56:00,34.0,22.3,28.56,North,6,0.0,0.0,62,0.00,CLR,OVC,0.00,WeatherDisplay:10.37,2013-06-18 05:56:00,
2013-06-18 02:01:00,34.3,23.8,28.56,North,6,0.0,0.0,65,0.00,CLR,OVC,0.00,WeatherDisplay:10.37,2013-06-18 06:01:00,
2013-06-18 02:06:00,34.9,25.7,28.56,North,6,0.0,0.0,69,0.00,CLR,OVC,0.00,WeatherDisplay:10.37,2013-06-18 06:06:00,
2013-06-18 02:11:00,34.9,25.7,28.56,North,6,0.0,0.0,69,0.00,CLR,OVC,0.00,WeatherDisplay:10.37,2013-06-18 06:11:00,
2013-06-18 02:16:00,34.7,25.2,28.56,North,5,0.0,0.0,68,0.00,CLR,OVC,0.00,WeatherDisplay:10.37,2013-06-18 06:16:00,
2013-06-18 02:21:00,34.3,24.5,28.56,North,5,0.0,0.0,67,0.00,CLR,OVC,0.00,WeatherDisplay:10.37,2013-06-18 06:21:00,
2013-06-18 02:26:00,34.0,24.5,28.56,North,5,0.0,0.0,68,0.00,CLR,OVC,0.00,WeatherDisplay:10.37,2013-06-18 06:26:00,
2013-06-18 02:31:00,34.5,26.1,28.56,North,5,0.0,0.0,71,0.00,CLR,OVC,0.00,WeatherDisplay:10.37,2013-06-18 06:31:00,
2013-06-18 02:36:00,34.9,26.8,28.56,North,5,0.0,0.0,72,0.00,CLR,OVC,0.00,WeatherDisplay:10.37,2013-06-18 06:36:00,
2013-06-18 02:41:00,34.7,26.3,28.56,North,5,0.0,0.0,71,0.00,CLR,OVC,0.00,WeatherDisplay:10.37,2013-06-18 06:41:00,
2013-06-18 02:46:00,34.2,25.4,28.56,North,5,0.0,0.0,70,0.00,CLR,OVC,0.00,WeatherDisplay:10.37,2013-06-18 06:46:00,
2013-06-18 02:51:00,33.8,24.7,28.56,North,5,0.0,0.0,69,0.00,CLR,OVC,0.00,WeatherDisplay:10.37,2013-06-18 06:51:00,
2013-06-18 02:56:00,33.6,24.5,28.56,North,5,0.0,0.0,69,0.00,CLR,OVC,0.00,WeatherDisplay:10.37,2013-06-18 06:56:00,
2013-06-18 03:01:00,33.4,24.4,28.56,North,5,0.0,0.0,69,0.00,CLR,OVC,0.00,WeatherDisplay:10.37,2013-06-18 07:01:00,
2013-06-18 03:06:00,33.1,23.7,28.56,North,5,0.0,0.0,68,0.00,CLR,OVC,0.00,WeatherDisplay:10.37,2013-06-18 07:06:00,
2013-06-18 03:11:00,33.3,24.2,28.56,North,5,0.0,0.0,69,0.00,CLR,OVC,0.00,WeatherDisplay:10.37,2013-06-18 07:11:00,
2013-06-18 03:16:00,33.4,24.7,28.56,North,5,0.0,0.0,70,0.00,CLR,OVC,0.00,WeatherDisplay:10.37,2013-06-18 07:16:00,
2013-06-18 03:21:00,33.6,24.9,28.56,North,5,0.0,0.0,70,0.00,CLR,OVC,0.00,WeatherDisplay:10.37,2013-06-18 07:21:00,
2013-06-18 03:26:00,33.8,25.4,28.56,North,5,0.0,0.0,71,0.00,CLR,OVC,0.00,WeatherDisplay:10.37,2013-06-18 07:26:00,
2013-06-18 03:31:00,34.2,26.4,28.56,North,5,0.0,0.0,73,0.00,CLR,OVC,0.00,WeatherDisplay:10.37,2013-06-18 07:31:00,
2013-06-18 03:36:00,34.2,26.4,28.56,North,5,0.0,0.0,73,0.00,CLR,OVC,0.00,WeatherDisplay:10.37,2013-06-18 07:36:00,
2013-06-18 03:41:00,34.3,26.9,28.56,North,5,0.0,0.0,74,0.00,CLR,OVC,0.00,WeatherDisplay:10.37,2013-06-18 07:41:00,
2013-06-18 03:46:00,34.3,27.2,28.56,North,5,0.0,0.0,75,0.00,CLR,OVC,0.00,WeatherDisplay:10.37,2013-06-18 07:46:00,
2013-06-18 03:51:00,34.5,27.7,28.56,North,5,0.0,0.0,76,0.00,CLR,OVC,0.00,WeatherDisplay:10.37,2013-06-18 07:51:00,
2013-06-18 03:56:00,34.7,27.9,28.56,North,5,0.0,0.0,76,0.00,CLR,OVC,0.00,WeatherDisplay:10.37,2013-06-18 07:56:00,
2013-06-18 04:01:00,34.7,28.2,28.56,North,5,0.0,0.0,77,0.00,CLR,OVC,0.00,WeatherDisplay:10.37,2013-06-18 08:01:00,
2013-06-18 04:06:00,34.5,28.1,28.56,North,5,0.0,0.0,77,0.00,CLR,OVC,0.00,WeatherDisplay:10.37,2013-06-18 08:06:00,
2013-06-18 04:11:00,34.7,28.2,28.56,North,5,0.0,0.0,77,0.00,CLR,OVC,0.00,WeatherDisplay:10.37,2013-06-18 08:11:00,
2013-06-18 04:16:00,35.1,28.9,28.56,North,5,0.0,0.0,78,0.00,CLR,OVC,0.00,WeatherDisplay:10.37,2013-06-18 08:16:00,
2013-06-18 04:21:00,35.2,29.4,28.56,North,5,0.0,0.0,79,0.00,CLR,OVC,0.00,WeatherDisplay:10.37,2013-06-18 08:21:00,
2013-06-18 04:26:00,35.2,29.4,28.56,North,5,0.0,0.0,79,0.00,CLR,OVC,0.00,WeatherDisplay:10.37,2013-06-18 08:26:00,
2013-06-18 04:31:00,35.2,29.4,28.56,North,5,0.0,0.0,79,0.00,CLR,OVC,0.00,WeatherDisplay:10.37,2013-06-18 08:31:00,
2013-06-18 04:36:00,35.2,29.4,28.56,North,5,0.0,0.0,79,0.00,CLR,OVC,0.00,WeatherDisplay:10.37,2013-06-18 08:36:00,
2013-06-18 04:41:00,35.4,29.6,28.56,North,5,0.0,0.0,79,0.00,CLR,OVC,0.00,WeatherDisplay:10.37,2013-06-18 08:41:00,
2013-06-18 04:46:00,35.4,29.6,28.56,North,5,0.0,0.0,79,0.00,CLR,OVC,0.00,WeatherDisplay:10.37,2013-06-18 08:46:00,
2013-06-18 04:51:00,35.4,29.6,28.56,North,5,0.0,0.0,79,0.00,CLR,OVC,0.00,WeatherDisplay:10.37,2013-06-18 08:51:00,
2013-06-18 04:56:00,35.4,29.6,28.56,North,5,0.0,0.0,79,0.00,CLR,OVC,0.00,WeatherDisplay:10.37,2013-06-18 08:56:00,
2013-06-18 05:01:00,35.4,29.6,28.56,North,5,0.0,0.0,79,0.00,CLR,OVC,0.00,WeatherDisplay:10.37,2013-06-18 09:01:00,
2013-06-18 05:06:00,35.4,29.6,28.56,North,5,0.0,0.0,79,0.00,CLR,OVC,0.00,WeatherDisplay:10.37,2013-06-18 09:06:00,
2013-06-18 05:11:00,35.4,29.6,28.56,North,5,0.0,0.0,79,0.00,CLR,OVC,0.00,WeatherDisplay:10.37,2013-06-18 09:11:00,
2013-06-18 05:16:00,35.4,30.5,28.56,North,5,0.0,0.0,82,0.00,CLR,OVC,0.00,WeatherDisplay:10.37,2013-06-18 09:16:00,
2013-06-18 05:21:00,35.4,30.5,28.56,North,5,0.0,0.0,82,0.00,CLR,OVC,0.00,WeatherDisplay:10.37,2013-06-18 09:21:00,
2013-06-18 05:26:00,35.4,30.5,28.56,North,5,0.0,0.0,82,0.00,CLR,OVC,0.00,WeatherDisplay:10.37,2013-06-18 09:26:00,
2013-06-18 05:31:00,34.7,29.5,28.56,North,5,0.0,0.0,81,0.00,CLR,OVC,0.00,WeatherDisplay:10.37,2013-06-18 09:31:00,
2013-06-18 05:36:00,34.7,29.5,28.56,North,5,0.0,0.0,81,0.00,CLR,OVC,0.00,WeatherDisplay:10.37,2013-06-18 09:36:00,
2013-06-18 05:41:00,34.7,29.5,28.56,North,5,0.0,0.0,81,0.00,CLR,OVC,0.00,WeatherDisplay:10.37,2013-06-18 09:41:00,
2013-06-18 05:46:00,34.7,29.5,28.56,North,5,0.0,0.0,81,0.00,CLR,OVC,0.00,WeatherDisplay:10.37,2013-06-18 09:46:00,
2013-06-18 05:51:00,34.7,29.5,28.56,North,5,0.0,0.0,81,0.00,CLR,OVC,0.00,WeatherDisplay:10.37,2013-06-18 09:51:00,
2013-06-18 05:56:00,34.7,29.5,28.56,North,5,0.0,0.0,81,0.00,CLR,OVC,0.00,WeatherDisplay:10.37,2013-06-18 09:56:00,
2013-06-18 06:01:00,34.7,29.5,28.56,North,5,0.0,0.0,81,0.00,CLR,OVC,0.00,WeatherDisplay:10.37,2013-06-18 10:01:00,
2013-06-18 06:06:00,34.7,29.5,28.58,North,5,0.0,0.0,81,0.00,CLR,OVC,0.00,WeatherDisplay:10.37,2013-06-18 10:06:00,
2013-06-18 06:11:00,34.7,29.5,28.58,North,5,0.0,0.0,81,0.00,CLR,OVC,0.00,WeatherDisplay:10.37,2013-06-18 10:11:00,
2013-06-18 06:16:00,34.7,29.5,28.58,North,5,0.0,0.0,81,0.00,CLR,OVC,0.00,WeatherDisplay:10.37,2013-06-18 10:16:00,
2013-06-18 06:21:00,34.7,29.5,28.58,North,5,0.0,0.0,81,0.00,CLR,OVC,0.00,WeatherDisplay:10.37,2013-06-18 10:21:00,
2013-06-18 06:26:00,34.7,29.5,28.58,North,5,0.0,0.0,81,0.00,CLR,OVC,0.00,WeatherDisplay:10.37,2013-06-18 10:26:00,
2013-06-18 06:31:00,34.7,29.5,28.58,North,5,0.0,0.0,81,0.00,CLR,OVC,0.00,WeatherDisplay:10.37,2013-06-18 10:31:00,
2013-06-18 06:36:00,34.7,29.5,28.58,North,5,0.0,0.0,81,0.00,CLR,OVC,0.00,WeatherDisplay:10.37,2013-06-18 10:36:00,
2013-06-18 06:41:00,34.7,29.5,28.58,North,7,0.0,0.0,81,0.00,CLR,OVC,0.00,WeatherDisplay:10.37,2013-06-18 10:41:00,
2013-06-18 06:46:00,34.7,29.5,28.58,North,7,0.0,0.0,81,0.00,CLR,OVC,0.00,WeatherDisplay:10.37,2013-06-18 10:46:00,
2013-06-18 06:51:00,34.7,29.5,28.58,NE,37,0.0,0.0,81,0.00,CLR,OVC,0.00,WeatherDisplay:10.37,2013-06-18 10:51:00,
2013-06-18 06:56:00,34.7,29.5,28.58,NE,55,0.0,2.3,81,0.00,CLR,OVC,0.00,WeatherDisplay:10.37,2013-06-18 10:56:00,
2013-06-18 07:01:00,34.7,29.5,28.58,NE,48,0.0,0.0,81,0.00,CLR,OVC,0.00,WeatherDisplay:10.37,2013-06-18 11:01:00,
2013-06-18 07:06:00,34.7,29.5,28.58,NNW,335,0.0,3.5,81,0.00,CLR,OVC,0.00,WeatherDisplay:10.37,2013-06-18 11:06:00,
2013-06-18 07:11:00,34.7,29.5,28.58,NNE,31,0.0,2.3,81,0.00,CLR,OVC,0.00,WeatherDisplay:10.37,2013-06-18 11:11:00,
2013-06-18 07:16:00,34.7,29.5,28.58,NE,53,0.0,0.0,81,0.00,CLR,OVC,0.00,WeatherDisplay:10.37,2013-06-18 11:16:00,
2013-06-18 07:21:00,34.7,29.5,28.58,NE,37,0.0,0.0,81,0.00,CLR,OVC,0.00,WeatherDisplay:10.37,2013-06-18 11:21:00,
2013-06-18 07:26:00,34.7,29.5,28.58,NE,43,2.2,3.5,81,0.00,CLR,OVC,0.00,WeatherDisplay:10.37,2013-06-18 11:26:00,
2013-06-18 07:31:00,34.7,29.5,28.58,East,79,0.0,3.6,81,0.00,CLR,OVC,0.00,WeatherDisplay:10.37,2013-06-18 11:31:00,
2013-06-18 07:36:00,34.7,29.5,28.58,East,79,0.0,0.0,81,0.00,CLR,OVC,0.00,WeatherDisplay:10.37,2013-06-18 11:36:00,
2013-06-18 07:41:00,34.7,29.5,28.58,North,0,2.2,3.5,81,0.00,CLR,OVC,0.00,WeatherDisplay:10.37,2013-06-18 11:41:00,
2013-06-18 07:46:00,34.7,29.5,28.58,North,3,0.0,3.5,81,0.00,CLR,OVC,0.00,WeatherDisplay:10.37,2013-06-18 11:46:00,
2013-06-18 07:51:00,34.7,29.5,28.58,ENE,63,3.1,4.9,81,0.00,CLR,OVC,0.00,WeatherDisplay:10.37,2013-06-18 11:51:00,
2013-06-18 07:56:00,34.7,29.5,28.58,North,0,0.0,5.8,81,0.00,CLR,OVC,0.00,WeatherDisplay:10.37,2013-06-18 11:56:00,
2013-06-18 08:01:00,34.7,29.5,28.58,NW,317,3.6,3.6,81,0.00,CLR,OVC,0.00,WeatherDisplay:10.37,2013-06-18 12:01:00,
2013-06-18 08:06:00,34.7,29.5,28.58,NE,43,2.2,3.5,81,0.00,CLR,OVC,0.00,WeatherDisplay:10.37,2013-06-18 12:06:00,
2013-06-18 08:11:00,34.7,29.5,28.58,North,8,3.6,5.8,81,0.00,CLR,OVC,0.00,WeatherDisplay:10.37,2013-06-18 12:11:00,
2013-06-18 08:16:00,34.7,29.5,28.58,NNE,24,3.6,4.6,81,0.00,CLR,OVC,0.00,WeatherDisplay:10.37,2013-06-18 12:16:00,
2013-06-18 08:21:00,34.7,29.5,28.58,NE,50,0.0,0.0,81,0.00,CLR,OVC,0.00,WeatherDisplay:10.37,2013-06-18 12:21:00,
2013-06-18 08:26:00,34.7,29.5,28.58,North,4,3.6,5.8,81,0.00,CLR,OVC,0.00,WeatherDisplay:10.37,2013-06-18 12:26:00,
2013-06-18 08:31:00,34.7,29.5,28.58,NE,38,2.2,3.5,81,0.00,CLR,OVC,0.00,WeatherDisplay:10.37,2013-06-18 12:31:00,
2013-06-18 08:36:00,34.7,29.5,28.58,NE,46,2.2,3.5,81,0.00,CLR,OVC,0.00,WeatherDisplay:10.37,2013-06-18 12:36:00,
2013-06-18 08:41:00,46.4,34.9,28.58,NE,45,3.1,5.8,64,0.00,CLR,OVC,0.00,WeatherDisplay:10.37,2013-06-18 12:41:00,
2013-06-18 08:46:00,46.4,34.9,28.58,NNE,25,0.0,0.0,64,0.00,CLR,OVC,0.00,WeatherDisplay:10.37,2013-06-18 12:46:00,
2013-06-18 08:51:00,46.4,34.9,28.58,NNE,26,0.0,0.0,64,0.00,CLR,OVC,0.00,WeatherDisplay:10.37,2013-06-18 12:51:00,
2013-06-18 08:56:00,46.4,34.9,28.58,North,9,0.0,4.6,64,0.00,CLR,OVC,0.00,WeatherDisplay:10.37,2013-06-18 12:56:00,
2013-06-18 09:01:00,46.4,34.9,28.58,ESE,106,2.2,3.5,64,0.00,CLR,OVC,0.00,WeatherDisplay:10.37,2013-06-18 13:01:00,
2013-06-18 09:06:00,46.4,34.9,28.61,NNE,31,0.0,2.3,64,0.00,CLR,OVC,0.00,WeatherDisplay:10.37,2013-06-18 13:06:00,
2013-06-18 09:11:00,46.4,34.9,28.61,East,87,2.2,3.5,64,0.00,CLR,OVC,0.00,WeatherDisplay:10.37,2013-06-18 13:11:00,
2013-06-18 09:16:00,46.4,34.9,28.61,North,10,2.2,3.5,64,0.00,CLR,OVC,0.00,WeatherDisplay:10.37,2013-06-18 13:16:00,
2013-06-18 09:21:00,46.4,34.9,28.61,North,6,0.0,3.5,64,0.00,CLR,OVC,0.00,WeatherDisplay:10.37,2013-06-18 13:21:00,
2013-06-18 09:26:00,46.4,34.9,28.61,NW,308,2.2,3.5,64,0.00,CLR,OVC,0.00,WeatherDisplay:10.37,2013-06-18 13:26:00,
2013-06-18 09:31:00,46.4,34.9,28.61,WNW,294,3.6,5.8,64,0.00,CLR,OVC,0.00,WeatherDisplay:10.37,2013-06-18 13:31:00,
2013-06-18 09:36:00,46.4,34.9,28.61,North,6,0.0,0.0,64,0.00,CLR,OVC,0.00,WeatherDisplay:10.37,2013-06-18 13:36:00,
2013-06-18 09:41:00,46.4,34.9,28.61,East,86,2.2,0.0,64,0.00,CLR,OVC,0.00,WeatherDisplay:10.37,2013-06-18 13:41:00,
2013-06-18 09:46:00,46.4,34.9,28.61,ENE,58,3.6,3.6,64,0.00,CLR,OVC,0.00,WeatherDisplay:10.37,2013-06-18 13:46:00,
2013-06-18 09:51:00,46.4,34.9,28.61,ESE,111,3.6,4.0,64,0.00,CLR,OVC,0.00,WeatherDisplay:10.37,2013-06-18 13:51:00,
2013-06-18 09:56:00,46.4,34.9,28.61,ENE,71,4.0,4.0,64,0.00,CLR,OVC,0.00,WeatherDisplay:10.37,2013-06-18 13:56:00,
2013-06-18 10:01:00,46.4,34.9,28.61,NE,37,4.0,4.6,64,0.00,CLR,OVC,0.00,WeatherDisplay:10.37,2013-06-18 14:01:00,
2013-06-18 10:06:00,46.4,34.9,28.61,East,90,2.7,5.8,64,0.00,CLR,OVC,0.00,WeatherDisplay:10.37,2013-06-18 14:06:00,
2013-06-18 10:11:00,46.4,34.9,28.61,North,353,3.1,3.5,64,0.00,CLR,OVC,0.00,WeatherDisplay:10.37,2013-06-18 14:11:00,
2013-06-18 10:16:00,46.4,34.9,28.61,NNW,341,3.1,5.8,64,0.00,CLR,OVC,0.00,WeatherDisplay:10.37,2013-06-18 14:16:00,
2013-06-18 10:21:00,46.4,34.9,28.61,East,100,4.0,5.8,64,0.00,CLR,OVC,0.00,WeatherDisplay:10.37,2013-06-18 14:21:00,
2013-06-18 10:26:00,46.4,34.9,28.61,NNE,12,3.1,5.8,64,0.00,CLR,OVC,0.00,WeatherDisplay:10.37,2013-06-18 14:26:00,
2013-06-18 10:31:00,46.4,34.9,28.61,ESE,102,0.0,3.5,64,0.00,CLR,OVC,0.00,WeatherDisplay:10.37,2013-06-18 14:31:00,
2013-06-18 10:36:00,46.4,34.9,28.61,ENE,75,2.7,3.6,64,0.00,CLR,OVC,0.00,WeatherDisplay:10.37,2013-06-18 14:36:00,
2013-06-18 10:41:00,46.4,34.9,28.61,NE,56,3.6,5.8,64,0.00,CLR,OVC,0.00,WeatherDisplay:10.37,2013-06-18 14:41:00,
2013-06-18 10:46:00,64.4,22.4,28.61,East,96,0.0,3.5,20,0.00,CLR,OVC,0.00,WeatherDisplay:10.37,2013-06-18 14:46:00,
2013-06-18 10:51:00,64.4,22.4,28.61,NNW,335,4.5,4.6,20,0.00,CLR,OVC,0.00,WeatherDisplay:10.37,2013-06-18 14:51:00,
2013-06-18 10:56:00,64.8,20.2,28.61,NNE,21,4.9,8.1,18,0.00,CLR,OVC,0.00,WeatherDisplay:10.37,2013-06-18 14:56:00,
2013-06-18 11:01:00,64.8,20.2,28.61,SE,130,2.2,6.3,18,0.00,CLR,OVC,0.00,WeatherDisplay:10.37,2013-06-18 15:01:00,
2013-06-18 11:06:00,64.8,20.2,28.61,East,79,2.7,5.8,18,0.00,CLR,OVC,0.00,WeatherDisplay:10.37,2013-06-18 15:06:00,
2013-06-18 11:11:00,64.8,20.2,28.61,East,84,4.5,5.8,18,0.00,CLR,OVC,0.00,WeatherDisplay:10.37,2013-06-18 15:11:00,
2013-06-18 11:16:00,64.8,20.2,28.61,NNE,23,6.3,6.3,18,0.00,CLR,OVC,0.00,WeatherDisplay:10.37,2013-06-18 15:16:00,
2013-06-18 11:21:00,64.8,20.2,28.61,NNE,22,5.4,8.1,18,0.00,CLR,OVC,0.00,WeatherDisplay:10.37,2013-06-18 15:21:00,
2013-06-18 11:26:00,64.8,20.2,28.61,East,99,4.5,5.8,18,0.00,CLR,OVC,0.00,WeatherDisplay:10.37,2013-06-18 15:26:00,
2013-06-18 11:31:00,67.6,21.2,28.61,NE,39,3.1,8.1,17,0.00,CLR,OVC,0.00,WeatherDisplay:10.37,2013-06-18 15:31:00,
2013-06-18 11:36:00,67.6,21.2,28.61,NW,321,6.3,8.1,17,0.00,CLR,OVC,0.00,WeatherDisplay:10.37,2013-06-18 15:36:00,
2013-06-18 11:41:00,67.6,21.2,28.61,ENE,72,5.8,8.1,17,0.00,CLR,OVC,0.00,WeatherDisplay:10.37,2013-06-18 15:41:00,
2013-06-18 11:46:00,67.3,18.0,28.61,ENE,66,3.1,5.8,15,0.00,CLR,OVC,0.00,WeatherDisplay:10.37,2013-06-18 15:46:00,
2013-06-18 11:51:00,67.3,20.9,28.61,NNE,22,5.4,6.3,17,0.00,CLR,OVC,0.00,WeatherDisplay:10.37,2013-06-18 15:51:00,
2013-06-18 11:56:00,68.4,18.9,28.61,NNE,12,4.0,9.2,15,0.00,CLR,OVC,0.00,WeatherDisplay:10.37,2013-06-18 15:56:00,
2013-06-18 12:01:00,68.4,18.9,28.61,East,84,4.5,5.8,15,0.00,CLR,OVC,0.00,WeatherDisplay:10.37,2013-06-18 16:01:00,
2013-06-18 12:06:00,68.4,18.9,28.61,East,84,4.5,8.1,15,0.00,CLR,OVC,0.00,WeatherDisplay:10.37,2013-06-18 16:06:00,
2013-06-18 12:11:00,68.4,18.9,28.61,NE,36,4.5,8.1,15,0.00,CLR,OVC,0.00,WeatherDisplay:10.37,2013-06-18 16:11:00,
2013-06-18 12:16:00,68.4,18.9,28.61,NE,43,4.0,5.8,15,0.00,CLR,OVC,0.00,WeatherDisplay:10.37,2013-06-18 16:16:00,
2013-06-18 12:21:00,68.4,18.9,28.61,NNE,18,2.7,3.5,15,0.00,CLR,OVC,0.00,WeatherDisplay:10.37,2013-06-18 16:21:00,
2013-06-18 12:26:00,70.2,18.7,28.61,ENE,66,4.9,5.8,14,0.00,CLR,OVC,0.00,WeatherDisplay:10.37,2013-06-18 16:26:00,
2013-06-18 12:31:00,70.2,18.7,28.61,North,357,2.2,3.5,14,0.00,CLR,OVC,0.00,WeatherDisplay:10.37,2013-06-18 16:31:00,
2013-06-18 12:36:00,70.2,18.7,28.61,ENE,59,5.8,8.1,14,0.00,CLR,OVC,0.00,WeatherDisplay:10.37,2013-06-18 16:36:00,
2013-06-18 12:41:00,70.2,18.7,28.61,NNE,32,2.7,5.8,14,0.00,CLR,OVC,0.00,WeatherDisplay:10.37,2013-06-18 16:41:00,
2013-06-18 12:46:00,70.2,18.7,28.61,NE,48,3.6,5.8,14,0.00,CLR,OVC,0.00,WeatherDisplay:10.37,2013-06-18 16:46:00,
2013-06-18 12:51:00,70.2,18.7,28.61,NNE,13,3.1,3.5,14,0.00,CLR,OVC,0.00,WeatherDisplay:10.37,2013-06-18 16:51:00,
2013-06-18 12:56:00,70.7,19.1,28.61,East,90,2.7,4.6,14,0.00,CLR,OVC,0.00,WeatherDisplay:10.37,2013-06-18 16:56:00,
2013-06-18 13:01:00,70.5,19.0,28.61,SE,138,5.8,5.8,14,0.00,CLR,OVC,0.00,WeatherDisplay:10.37,2013-06-18 17:01:00,
2013-06-18 13:06:00,70.3,18.8,28.61,ENE,60,3.6,5.8,14,0.00,CLR,OVC,0.00,WeatherDisplay:10.37,2013-06-18 17:06:00,
2013-06-18 13:11:00,70.5,19.0,28.61,NE,37,2.2,3.5,14,0.00,CLR,OVC,0.00,WeatherDisplay:10.37,2013-06-18 17:11:00,
2013-06-18 13:16:00,70.0,18.5,28.61,East,81,3.1,3.5,14,0.00,CLR,OVC,0.00,WeatherDisplay:10.37,2013-06-18 17:16:00,
2013-06-18 13:21:00,69.6,18.3,28.61,East,93,4.5,5.8,14,0.00,CLR,OVC,0.00,WeatherDisplay:10.37,2013-06-18 17:21:00,
2013-06-18 13:26:00,69.1,17.8,28.61,East,80,4.5,5.8,14,0.00,CLR,OVC,0.00,WeatherDisplay:10.37,2013-06-18 17:26:00,
2013-06-18 13:31:00,70.0,18.5,28.61,NE,50,3.6,4.6,14,0.00,CLR,OVC,0.00,WeatherDisplay:10.37,2013-06-18 17:31:00,
2013-06-18 13:36:00,71.4,19.7,28.61,South,177,3.6,5.8,14,0.00,CLR,OVC,0.00,WeatherDisplay:10.37,2013-06-18 17:36:00,
2013-06-18 13:41:00,70.3,18.8,28.61,NNE,21,2.2,3.5,14,0.00,CLR,OVC,0.00,WeatherDisplay:10.37,2013-06-18 17:41:00,
2013-06-18 13:46:00,70.9,19.3,28.61,ENE,69,5.8,10.4,14,0.00,CLR,OVC,0.00,WeatherDisplay:10.37,2013-06-18 17:46:00,
2013-06-18 13:51:00,71.6,19.8,28.61,North,11,4.5,6.9,14,0.00,CLR,OVC,0.00,WeatherDisplay:10.37,2013-06-18 17:51:00,
2013-06-18 13:56:00,72.0,20.1,28.61,ESE,114,3.6,4.6,14,0.00,CLR,OVC,0.00,WeatherDisplay:10.37,2013-06-18 17:56:00,
2013-06-18 14:01:00,71.4,19.7,28.61,NE,39,2.2,2.3,14,0.00,CLR,OVC,0.00,WeatherDisplay:10.37,2013-06-18 18:01:00,
2013-06-18 14:06:00,71.8,20.0,28.58,NNE,20,4.0,4.0,14,0.00,CLR,OVC,0.00,WeatherDisplay:10.37,2013-06-18 18:06:00,
2013-06-18 14:11:00,71.4,19.7,28.58,East,85,4.5,8.1,14,0.00,CLR,OVC,0.00,WeatherDisplay:10.37,2013-06-18 18:11:00,
2013-06-18 14:16:00,71.6,19.8,28.58,SE,138,4.9,5.8,14,0.00,CLR,OVC,0.00,WeatherDisplay:10.37,2013-06-18 18:16:00,
2013-06-18 14:21:00,72.3,20.4,28.61,NE,38,2.2,3.5,14,0.00,CLR,OVC,0.00,WeatherDisplay:10.37,2013-06-18 18:21:00,
2013-06-18 14:26:00,72.3,20.4,28.61,ENE,66,2.2,4.6,14,0.00,CLR,OVC,0.00,WeatherDisplay:10.37,2013-06-18 18:26:00,
2013-06-18 14:31:00,73.0,19.2,28.61,East,90,3.6,5.8,13,0.00,CLR,OVC,0.00,WeatherDisplay:10.37,2013-06-18 18:31:00,
2013-06-18 14:36:00,71.8,20.0,28.58,ESE,109,4.0,5.8,14,0.00,CLR,OVC,0.00,WeatherDisplay:10.37,2013-06-18 18:36:00,
2013-06-18 14:41:00,71.8,20.0,28.58,ESE,108,2.7,3.5,14,0.00,CLR,OVC,0.00,WeatherDisplay:10.37,2013-06-18 18:41:00,
2013-06-18 14:46:00,72.0,20.1,28.58,North,8,0.0,5.8,14,0.00,CLR,OVC,0.00,WeatherDisplay:10.37,2013-06-18 18:46:00,
2013-06-18 14:51:00,72.5,18.8,28.58,NE,50,3.1,8.1,13,0.00,CLR,OVC,0.00,WeatherDisplay:10.37,2013-06-18 18:51:00,
2013-06-18 14:56:00,73.6,19.7,28.58,NNW,336,5.4,9.6,13,0.00,CLR,OVC,0.00,WeatherDisplay:10.37,2013-06-18 18:56:00,
2013-06-18 15:01:00,73.2,19.4,28.58,East,86,4.5,7.2,13,0.00,CLR,OVC,0.00,WeatherDisplay:10.37,2013-06-18 19:01:00,
2013-06-18 15:06:00,73.6,19.7,28.58,West,270,4.5,5.8,13,0.00,CLR,OVC,0.00,WeatherDisplay:10.37,2013-06-18 19:06:00,
2013-06-18 15:11:00,73.0,19.2,28.58,SE,139,4.5,5.8,13,0.00,CLR,OVC,0.00,WeatherDisplay:10.37,2013-06-18 19:11:00,
2013-06-18 15:16:00,72.5,18.8,28.58,ENE,78,3.1,3.5,13,0.00,CLR,OVC,0.00,WeatherDisplay:10.37,2013-06-18 19:16:00,
2013-06-18 15:21:00,72.5,18.8,28.58,NNE,27,2.2,4.6,13,0.00,CLR,OVC,0.00,WeatherDisplay:10.37,2013-06-18 19:21:00,
2013-06-18 15:26:00,72.3,20.4,28.58,SSW,204,0.0,4.0,14,0.00,CLR,OVC,0.00,WeatherDisplay:10.37,2013-06-18 19:26:00,
2013-06-18 15:31:00,71.8,20.0,28.58,East,81,3.6,5.8,14,0.00,CLR,OVC,0.00,WeatherDisplay:10.37,2013-06-18 19:31:00,
2013-06-18 15:36:00,72.5,18.8,28.58,ENE,64,4.0,5.8,13,0.00,CLR,OVC,0.00,WeatherDisplay:10.37,2013-06-18 19:36:00,
2013-06-18 15:41:00,73.2,19.4,28.58,East,79,2.7,3.5,13,0.00,CLR,OVC,0.00,WeatherDisplay:10.37,2013-06-18 19:41:00,
2013-06-18 15:46:00,73.2,19.4,28.58,East,87,2.7,6.3,13,0.00,CLR,OVC,0.00,WeatherDisplay:10.37,2013-06-18 19:46:00,
2013-06-18 15:51:00,73.8,19.8,28.58,ESE,102,3.1,5.8,13,0.00,CLR,OVC,0.00,WeatherDisplay:10.37,2013-06-18 19:51:00,
2013-06-18 15:56:00,73.2,19.4,28.58,NE,36,3.1,5.8,13,0.00,CLR,OVC,0.00,WeatherDisplay:10.37,2013-06-18 19:56:00,
2013-06-18 16:01:00,72.1,20.3,28.58,ENE,77,2.7,3.5,14,0.00,CLR,OVC,0.00,WeatherDisplay:10.37,2013-06-18 20:01:00,
2013-06-18 16:06:00,70.5,19.0,28.58,ESE,116,3.6,3.6,14,0.00,CLR,OVC,0.00,WeatherDisplay:10.37,2013-06-18 20:06:00,
2013-06-18 16:11:00,70.9,19.3,28.58,ESE,106,3.6,8.1,14,0.00,CLR,OVC,0.00,WeatherDisplay:10.37,2013-06-18 20:11:00,
2013-06-18 16:16:00,70.5,19.0,28.58,NNE,24,4.0,5.8,14,0.00,CLR,OVC,0.00,WeatherDisplay:10.37,2013-06-18 20:16:00,
2013-06-18 16:21:00,70.5,19.0,28.58,ESE,108,3.1,5.8,14,0.00,CLR,OVC,0.00,WeatherDisplay:10.37,2013-06-18 20:21:00,
2013-06-18 16:26:00,69.1,17.8,28.58,ESE,119,4.9,8.1,14,0.00,CLR,OVC,0.00,WeatherDisplay:10.37,2013-06-18 20:26:00,
2013-06-18 16:31:00,69.1,17.8,28.58,North,357,4.0,5.8,14,0.00,CLR,OVC,0.00,WeatherDisplay:10.37,2013-06-18 20:31:00,
2013-06-18 16:36:00,68.9,17.7,28.58,SSE,165,2.2,5.8,14,0.00,CLR,OVC,0.00,WeatherDisplay:10.37,2013-06-18 20:36:00,
2013-06-18 16:41:00,68.0,18.6,28.58,East,86,0.0,5.8,15,0.00,CLR,OVC,0.00,WeatherDisplay:10.37,2013-06-18 20:41:00,
2013-06-18 16:46:00,68.2,18.7,28.58,SW,232,0.0,2.3,15,0.00,CLR,OVC,0.00,WeatherDisplay:10.37,2013-06-18 20:46:00,
2013-06-18 16:51:00,67.6,18.3,28.58,South,172,3.6,5.8,15,0.00,CLR,OVC,0.00,WeatherDisplay:10.37,2013-06-18 20:51:00,
2013-06-18 16:56:00,68.4,18.9,28.58,NE,55,3.6,3.6,15,0.00,CLR,OVC,0.00,WeatherDisplay:10.37,2013-06-18 20:56:00,
2013-06-18 17:01:00,68.7,19.1,28.58,SSW,193,2.7,5.8,15,0.00,CLR,OVC,0.00,WeatherDisplay:10.37,2013-06-18 21:01:00,
2013-06-18 17:06:00,68.4,18.9,28.58,ESE,106,2.7,5.8,15,0.00,CLR,OVC,0.00,WeatherDisplay:10.37,2013-06-18 21:06:00,
2013-06-18 17:11:00,68.9,17.7,28.58,SE,145,3.1,3.5,14,0.00,CLR,OVC,0.00,WeatherDisplay:10.37,2013-06-18 21:11:00,
2013-06-18 17:16:00,68.9,17.7,28.58,ENE,72,2.7,4.6,14,0.00,CLR,OVC,0.00,WeatherDisplay:10.37,2013-06-18 21:16:00,
2013-06-18 17:21:00,69.4,18.1,28.58,East,89,3.1,5.8,14,0.00,CLR,OVC,0.00,WeatherDisplay:10.37,2013-06-18 21:21:00,
2013-06-18 17:26:00,69.6,18.3,28.58,South,177,3.6,3.6,14,0.00,CLR,OVC,0.00,WeatherDisplay:10.37,2013-06-18 21:26:00,
2013-06-18 17:31:00,68.9,17.7,28.58,East,98,3.1,4.6,14,0.00,CLR,OVC,0.00,WeatherDisplay:10.37,2013-06-18 21:31:00,
2013-06-18 17:36:00,67.8,18.4,28.58,ENE,69,4.9,5.8,15,0.00,CLR,OVC,0.00,WeatherDisplay:10.37,2013-06-18 21:36:00,
2013-06-18 17:41:00,67.3,18.0,28.58,NE,56,3.6,5.8,15,0.00,CLR,OVC,0.00,WeatherDisplay:10.37,2013-06-18 21:41:00,
2013-06-18 17:46:00,66.7,17.6,28.58,NNE,18,3.1,3.5,15,0.00,CLR,OVC,0.00,WeatherDisplay:10.37,2013-06-18 21:46:00,
2013-06-18 17:51:00,67.6,18.3,28.58,NE,43,3.6,4.6,15,0.00,CLR,OVC,0.00,WeatherDisplay:10.37,2013-06-18 21:51:00,
2013-06-18 17:56:00,69.1,17.8,28.58,SW,225,0.0,3.5,14,0.00,CLR,OVC,0.00,WeatherDisplay:10.37,2013-06-18 21:56:00,
2013-06-18 18:01:00,67.1,17.8,28.58,NNE,21,4.5,5.8,15,0.00,CLR,OVC,0.00,WeatherDisplay:10.37,2013-06-18 22:01:00,
2013-06-18 18:06:00,65.8,16.8,28.58,ESE,106,0.0,2.3,15,0.00,CLR,OVC,0.00,WeatherDisplay:10.37,2013-06-18 22:06:00,
2013-06-18 18:11:00,66.4,17.3,28.58,East,79,4.0,5.8,15,0.00,CLR,OVC,0.00,WeatherDisplay:10.37,2013-06-18 22:11:00,
2013-06-18 18:16:00,67.6,18.3,28.58,ENE,75,4.5,5.8,15,0.00,CLR,OVC,0.00,WeatherDisplay:10.37,2013-06-18 22:16:00,
2013-06-18 18:21:00,66.7,17.6,28.58,East,101,3.1,3.5,15,0.00,CLR,OVC,0.00,WeatherDisplay:10.37,2013-06-18 22:21:00,
2013-06-18 18:26:00,66.9,17.7,28.58,ENE,61,3.1,4.6,15,0.00,CLR,OVC,0.00,WeatherDisplay:10.37,2013-06-18 22:26:00,
2013-06-18 18:31:00,66.0,17.0,28.58,ESE,105,0.0,3.5,15,0.00,CLR,OVC,0.00,WeatherDisplay:10.37,2013-06-18 22:31:00,
2013-06-18 18:36:00,65.1,16.3,28.58,East,81,2.7,4.6,15,0.00,CLR,OVC,0.00,WeatherDisplay:10.37,2013-06-18 22:36:00,
2013-06-18 18:41:00,65.3,16.4,28.58,SE,126,4.5,5.8,15,0.00,CLR,OVC,0.00,WeatherDisplay:10.37,2013-06-18 22:41:00,
2013-06-18 18:46:00,66.0,17.0,28.58,ESE,118,4.9,5.8,15,0.00,CLR,OVC,0.00,WeatherDisplay:10.37,2013-06-18 22:46:00,
2013-06-18 18:51:00,66.0,17.0,28.58,SE,135,0.0,3.5,15,0.00,CLR,OVC,0.00,WeatherDisplay:10.37,2013-06-18 22:51:00,
2013-06-18 18:56:00,65.7,16.7,28.58,WSW,255,0.0,6.3,15,0.00,CLR,OVC,0.00,WeatherDisplay:10.37,2013-06-18 22:56:00,
2013-06-18 19:01:00,65.1,16.3,28.58,ESE,112,3.6,3.6,15,0.00,CLR,OVC,0.00,WeatherDisplay:10.37,2013-06-18 23:01:00,
2013-06-18 19:06:00,64.8,16.0,28.58,East,100,2.2,3.5,15,0.00,CLR,OVC,0.00,WeatherDisplay:10.37,2013-06-18 23:06:00,
2013-06-18 19:11:00,65.1,16.3,28.58,SSW,203,2.2,3.5,15,0.00,CLR,OVC,0.00,WeatherDisplay:10.37,2013-06-18 23:11:00,
2013-06-18 19:16:00,66.0,17.0,28.58,NE,43,3.1,5.8,15,0.00,CLR,OVC,0.00,WeatherDisplay:10.37,2013-06-18 23:16:00,
2013-06-18 19:21:00,67.5,18.1,28.58,NNE,29,2.7,2.7,15,0.00,CLR,OVC,0.00,WeatherDisplay:10.37,2013-06-18 23:21:00,
2013-06-18 19:26:00,67.8,18.4,28.58,ESE,122,4.0,5.8,15,0.00,CLR,OVC,0.00,WeatherDisplay:10.37,2013-06-18 23:26:00,
2013-06-18 19:31:00,66.6,17.4,28.58,East,82,3.1,3.5,15,0.00,CLR,OVC,0.00,WeatherDisplay:10.37,2013-06-18 23:31:00,
2013-06-18 19:36:00,65.5,16.5,28.58,East,84,3.6,4.6,15,0.00,CLR,OVC,0.00,WeatherDisplay:10.37,2013-06-18 23:36:00,
2013-06-18 19:41:00,65.5,16.5,28.58,NE,39,3.6,4.6,15,0.00,CLR,OVC,0.00,WeatherDisplay:10.37,2013-06-18 23:41:00,
2013-06-18 19:46:00,65.3,16.4,28.58,East,86,2.2,3.5,15,0.00,CLR,OVC,0.00,WeatherDisplay:10.37,2013-06-18 23:46:00,
2013-06-18 19:51:00,65.5,16.5,28.58,ESE,122,2.7,3.5,15,0.00,CLR,OVC,0.00,WeatherDisplay:10.37,2013-06-18 23:51:00,
2013-06-18 19:56:00,65.5,16.5,28.58,East,89,2.7,5.8,15,0.00,CLR,OVC,0.00,WeatherDisplay:10.37,2013-06-18 23:56:00,
2013-06-18 20:01:00,65.7,16.7,28.58,ENE,64,4.5,5.8,15,0.00,CLR,OVC,0.00,WeatherDisplay:10.37,2013-06-19 00:01:00,
2013-06-18 20:06:00,65.1,16.3,28.58,East,86,0.0,2.3,15,0.00,CLR,OVC,0.00,WeatherDisplay:10.37,2013-06-19 00:06:00,
2013-06-18 20:11:00,64.0,15.4,28.58,ENE,61,3.6,5.8,15,0.00,CLR,OVC,0.00,WeatherDisplay:10.37,2013-06-19 00:11:00,
2013-06-18 20:16:00,63.3,16.3,28.58,East,98,2.7,4.6,16,0.00,CLR,OVC,0.00,WeatherDisplay:10.37,2013-06-19 00:16:00,
2013-06-18 20:21:00,61.9,15.1,28.58,East,97,0.0,2.3,16,0.00,CLR,OVC,0.00,WeatherDisplay:10.37,2013-06-19 00:21:00,
2013-06-18 20:26:00,61.0,14.4,28.58,East,83,0.0,2.3,16,0.00,CLR,OVC,0.00,WeatherDisplay:10.37,2013-06-19 00:26:00,
2013-06-18 20:31:00,59.9,13.5,28.58,ENE,74,0.0,3.6,16,0.00,CLR,OVC,0.00,WeatherDisplay:10.37,2013-06-19 00:31:00,
2013-06-18 20:36:00,59.2,14.3,28.58,ENE,73,0.0,0.0,17,0.00,CLR,OVC,0.00,WeatherDisplay:10.37,2013-06-19 00:36:00,
2013-06-18 20:41:00,58.5,13.7,28.58,ESE,102,0.0,2.3,17,0.00,CLR,OVC,0.00,WeatherDisplay:10.37,2013-06-19 00:41:00,
2013-06-18 20:46:00,58.1,13.4,28.58,NE,49,0.0,0.0,17,0.00,CLR,OVC,0.00,WeatherDisplay:10.37,2013-06-19 00:46:00,
2013-06-18 20:51:00,57.7,13.2,28.58,East,87,0.0,0.0,17,0.00,CLR,OVC,0.00,WeatherDisplay:10.37,2013-06-19 00:51:00,
2013-06-18 20:56:00,56.8,12.4,28.58,East,87,0.0,0.0,17,0.00,CLR,OVC,0.00,WeatherDisplay:10.37,2013-06-19 00:56:00,
2013-06-18 21:01:00,55.9,11.7,28.58,ENE,73,0.0,0.0,17,0.00,CLR,OVC,0.00,WeatherDisplay:10.37,2013-06-19 01:01:00,
2013-06-18 21:06:00,55.0,10.9,28.58,ENE,73,0.0,0.0,17,0.00,CLR,OVC,0.00,WeatherDisplay:10.37,2013-06-19 01:06:00,
2013-06-18 21:11:00,54.1,11.5,28.58,ENE,73,0.0,0.0,18,0.00,CLR,OVC,0.00,WeatherDisplay:10.37,2013-06-19 01:11:00,
2013-06-18 21:16:00,53.4,10.9,28.58,ENE,73,0.0,0.0,18,0.00,CLR,OVC,0.00,WeatherDisplay:10.37,2013-06-19 01:16:00,
2013-06-18 21:21:00,52.9,10.5,28.56,ENE,69,0.0,0.0,18,0.00,CLR,OVC,0.00,WeatherDisplay:10.37,2013-06-19 01:21:00,
2013-06-18 21:26:00,52.3,13.5,28.56,ENE,69,0.0,0.0,21,0.00,CLR,OVC,0.00,WeatherDisplay:10.37,2013-06-19 01:26:00,
2013-06-18 21:31:00,51.8,13.0,28.56,ENE,69,0.0,0.0,21,0.00,CLR,OVC,0.00,WeatherDisplay:10.37,2013-06-19 01:31:00,
2013-06-18 21:36:00,51.1,12.4,28.56,ENE,69,0.0,0.0,21,0.00,CLR,OVC,0.00,WeatherDisplay:10.37,2013-06-19 01:36:00,
2013-06-18 21:41:00,50.0,11.5,28.56,ENE,69,0.0,0.0,21,0.00,CLR,OVC,0.00,WeatherDisplay:10.37,2013-06-19 01:41:00,
2013-06-18 21:46:00,49.1,10.8,28.56,ENE,69,0.0,0.0,21,0.00,CLR,OVC,0.00,WeatherDisplay:10.37,2013-06-19 01:46:00,
2013-06-18 21:51:00,48.4,13.2,28.56,ENE,69,0.0,0.0,24,0.00,CLR,OVC,0.00,WeatherDisplay:10.37,2013-06-19 01:51:00,
2013-06-18 21:56:00,47.8,15.4,28.56,ENE,69,0.0,0.0,27,0.00,CLR,OVC,0.00,WeatherDisplay:10.37,2013-06-19 01:56:00,
2013-06-18 22:01:00,47.5,15.1,28.56,ENE,69,0.0,0.0,27,0.00,CLR,OVC,0.00,WeatherDisplay:10.37,2013-06-19 02:01:00,
2013-06-18 22:06:00,46.9,15.5,28.56,ENE,69,0.0,0.0,28,0.00,CLR,OVC,0.00,WeatherDisplay:10.37,2013-06-19 02:06:00,
2013-06-18 22:11:00,46.4,15.0,28.56,ENE,69,0.0,0.0,28,0.00,CLR,OVC,0.00,WeatherDisplay:10.37,2013-06-19 02:11:00,
2013-06-18 22:16:00,45.7,14.4,28.56,ENE,69,0.0,0.0,28,0.00,CLR,OVC,0.00,WeatherDisplay:10.37,2013-06-19 02:16:00,
2013-06-18 22:21:00,45.1,14.7,28.58,ENE,70,0.0,0.0,29,0.00,CLR,OVC,0.00,WeatherDisplay:10.37,2013-06-19 02:21:00,
2013-06-18 22:26:00,44.4,14.1,28.58,ENE,70,0.0,0.0,29,0.00,CLR,OVC,0.00,WeatherDisplay:10.37,2013-06-19 02:26:00,
2013-06-18 22:31:00,43.7,14.2,28.58,ENE,70,0.0,0.0,30,0.00,CLR,OVC,0.00,WeatherDisplay:10.37,2013-06-19 02:31:00,
2013-06-18 22:36:00,43.5,17.0,28.58,ENE,70,0.0,0.0,34,0.00,CLR,OVC,0.00,WeatherDisplay:10.37,2013-06-19 02:36:00,
2013-06-18 22:41:00,43.3,18.1,28.58,ENE,70,0.0,0.0,36,0.00,CLR,OVC,0.00,WeatherDisplay:10.37,2013-06-19 02:41:00,
2013-06-18 22:46:00,43.0,17.8,28.58,ENE,70,0.0,0.0,36,0.00,CLR,OVC,0.00,WeatherDisplay:10.37,2013-06-19 02:46:00,
2013-06-18 22:51:00,42.6,16.8,28.58,ENE,70,0.0,0.0,35,0.00,CLR,OVC,0.00,WeatherDisplay:10.37,2013-06-19 02:51:00,
2013-06-18 22:56:00,42.3,17.8,28.58,ENE,70,0.0,0.0,37,0.00,CLR,OVC,0.00,WeatherDisplay:10.37,2013-06-19 02:56:00,
2013-06-18 23:01:00,42.1,18.3,28.58,ENE,69,0.0,0.0,38,0.00,CLR,OVC,0.00,WeatherDisplay:10.37,2013-06-19 03:01:00,
2013-06-18 23:06:00,41.9,18.1,28.58,ENE,69,0.0,0.0,38,0.00,CLR,OVC,0.00,WeatherDisplay:10.37,2013-06-19 03:06:00,
2013-06-18 23:11:00,41.5,17.8,28.58,ENE,69,0.0,0.0,38,0.00,CLR,OVC,0.00,WeatherDisplay:10.37,2013-06-19 03:11:00,
2013-06-18 23:16:00,41.2,17.5,28.58,ENE,69,0.0,0.0,38,0.00,CLR,OVC,0.00,WeatherDisplay:10.37,2013-06-19 03:16:00,
2013-06-18 23:21:00,41.2,18.1,28.56,ENE,69,0.0,0.0,39,0.00,CLR,OVC,0.00,WeatherDisplay:10.37,2013-06-19 03:21:00,
2013-06-18 23:26:00,41.2,18.1,28.56,ENE,69,0.0,0.0,39,0.00,CLR,OVC,0.00,WeatherDisplay:10.37,2013-06-19 03:26:00,
2013-06-18 23:31:00,40.8,17.7,28.56,ENE,69,0.0,0.0,39,0.00,CLR,OVC,0.00,WeatherDisplay:10.37,2013-06-19 03:31:00,
2013-06-18 23:36:00,40.8,17.7,28.56,ENE,69,0.0,0.0,39,0.00,CLR,OVC,0.00,WeatherDisplay:10.37,2013-06-19 03:36:00,
2013-06-18 23:41:00,40.3,17.3,28.56,ENE,69,0.0,0.0,39,0.00,CLR,OVC,0.00,WeatherDisplay:10.37,2013-06-19 03:41:00,
2013-06-18 23:46:00,40.1,17.1,28.56,ENE,69,0.0,0.0,39,0.00,CLR,OVC,0.00,WeatherDisplay:10.37,2013-06-19 03:46:00,
2013-06-18 23:51:00,40.1,17.7,28.56,ENE,69,0.0,0.0,40,0.00,CLR,OVC,0.00,WeatherDisplay:10.37,2013-06-19 03:51:00,
2013-06-18 23:56:00,40.1,17.7,28.56,ENE,69,0.0,0.0,40,0.00,CLR,OVC,0.00,WeatherDisplay:10.37,2013-06-19 03:56:00,